Time,TemperatureF,DewpointF,PressureIn,WindDirection,WindDirectionDegrees,WindSpeedMPH,WindSpeedGustMPH,Humidity,HourlyPrecipIn,Conditions,Clouds,dailyrainin,SoftwareType,DateUTC
2013-01-10 00:00:00,49.4,49.4,29.94,WSW,243,0.0,0.0,100,0.00,,,0.00,VWS V14.01,2013-01-10 05:00:00,
2013-01-10 00:04:00,49.4,49.4,29.94,WSW,243,0.0,0.0,100,0.00,,,0.00,VWS V14.01,2013-01-10 05:04:00,
2013-01-10 00:09:00,49.5,49.5,29.94,WSW,243,0.0,0.0,100,0.00,,,0.00,VWS V14.01,2013-01-10 05:09:00,
2013-01-10 00:14:00,49.5,49.5,29.94,WSW,243,0.0,0.0,100,0.00,,,0.00,VWS V14.01,2013-01-10 05:14:00,
2013-01-10 00:19:00,49.5,49.5,29.94,WSW,243,0.0,0.0,100,0.00,,,0.00,VWS V14.01,2013-01-10 05:19:00,
2013-01-10 00:20:00,49.5,49.5,29.94,WSW,243,0.0,0.0,100,0.00,,,0.00,VWS V14.01,2013-01-10 05:20:00,
2013-01-10 00:24:00,49.4,49.4,29.94,WSW,243,0.0,0.0,100,0.00,,,0.00,VWS V14.01,2013-01-10 05:24:00,
2013-01-10 00:29:00,49.4,49.4,29.94,WSW,243,0.0,0.0,100,0.00,,,0.00,VWS V14.01,2013-01-10 05:29:00,
2013-01-10 00:30:00,49.4,49.4,29.94,WSW,243,0.0,0.0,100,0.00,,,0.00,VWS V14.01,2013-01-10 05:30:00,
2013-01-10 00:34:00,49.4,49.4,29.94,WSW,243,0.0,0.0,100,0.00,,,0.00,VWS V14.01,2013-01-10 05:34:00,
2013-01-10 00:39:00,49.2,49.2,29.94,WSW,243,0.0,0.0,100,0.00,,,0.00,VWS V14.01,2013-01-10 05:39:00,
2013-01-10 00:44:00,49.2,49.2,29.94,WSW,243,0.0,0.0,100,0.00,,,0.00,VWS V14.01,2013-01-10 05:44:00,
2013-01-10 00:49:00,49.2,49.2,29.94,WSW,243,0.0,0.0,100,0.00,,,0.00,VWS V14.01,2013-01-10 05:49:00,
2013-01-10 00:50:00,49.2,49.2,29.94,WSW,243,0.0,0.0,100,0.00,,,0.00,VWS V14.01,2013-01-10 05:50:00,
2013-01-10 00:54:00,49.2,49.2,29.94,WSW,243,0.0,0.0,100,0.00,,,0.00,VWS V14.01,2013-01-10 05:54:00,
2013-01-10 00:59:00,49.2,49.2,29.94,WSW,243,0.0,0.0,100,0.00,,,0.00,VWS V14.01,2013-01-10 05:59:00,
2013-01-10 01:00:00,49.2,49.2,29.94,WSW,243,0.0,0.0,100,0.00,,,0.00,VWS V14.01,2013-01-10 06:00:00,
2013-01-10 01:04:00,49.2,49.2,29.94,WSW,243,0.0,0.0,100,0.00,,,0.00,VWS V14.01,2013-01-10 06:04:00,
2013-01-10 01:09:00,49.4,49.4,29.94,WSW,243,0.0,0.0,100,0.00,,,0.00,VWS V14.01,2013-01-10 06:09:00,
2013-01-10 01:10:00,49.4,49.4,29.94,WSW,243,0.0,0.0,100,0.00,,,0.00,VWS V14.01,2013-01-10 06:10:00,
2013-01-10 01:19:00,49.2,49.2,29.94,WSW,243,0.0,0.0,100,0.00,,,0.00,VWS V14.01,2013-01-10 06:19:00,
2013-01-10 01:20:00,49.2,49.2,29.94,WSW,243,0.0,0.0,100,0.00,,,0.00,VWS V14.01,2013-01-10 06:20:00,
2013-01-10 01:29:00,49.2,49.2,29.94,WSW,243,0.0,0.0,100,0.00,,,0.00,VWS V14.01,2013-01-10 06:29:00,
2013-01-10 01:30:00,49.2,49.2,29.94,WSW,243,0.0,0.0,100,0.00,,,0.00,VWS V14.01,2013-01-10 06:30:00,
2013-01-10 01:34:00,48.8,48.8,29.94,WSW,243,0.0,0.0,100,0.00,,,0.00,VWS V14.01,2013-01-10 06:34:00,
2013-01-10 01:39:00,48.8,48.8,29.94,WSW,243,0.0,0.0,100,0.00,,,0.00,VWS V14.01,2013-01-10 06:39:00,
2013-01-10 01:40:00,48.8,48.8,29.94,WSW,243,0.0,0.0,100,0.00,,,0.00,VWS V14.01,2013-01-10 06:40:00,
2013-01-10 01:44:00,48.6,48.6,29.94,WSW,243,0.0,0.0,100,0.00,,,0.00,VWS V14.01,2013-01-10 06:44:00,
2013-01-10 01:49:00,48.6,48.6,29.94,WSW,243,0.0,0.0,100,0.00,,,0.00,VWS V14.01,2013-01-10 06:49:00,
2013-01-10 01:50:00,48.6,48.6,29.94,WSW,243,0.0,0.0,100,0.00,,,0.00,VWS V14.01,2013-01-10 06:50:00,
2013-01-10 01:59:00,48.3,48.3,29.94,WSW,243,0.0,0.0,100,0.00,,,0.00,VWS V14.01,2013-01-10 06:59:00,
2013-01-10 02:00:00,48.3,48.3,29.94,WSW,243,0.0,0.0,100,0.00,,,0.00,VWS V14.01,2013-01-10 07:00:00,
2013-01-10 02:04:00,48.3,48.3,29.94,WSW,243,0.0,0.0,100,0.00,,,0.00,VWS V14.01,2013-01-10 07:04:00,
2013-01-10 02:09:00,48.3,48.3,29.94,WSW,243,0.0,0.0,100,0.00,,,0.00,VWS V14.01,2013-01-10 07:09:00,
2013-01-10 02:10:00,48.3,48.3,29.94,WSW,243,0.0,0.0,100,0.00,,,0.00,VWS V14.01,2013-01-10 07:10:00,
2013-01-10 02:14:00,48.3,48.3,29.94,WSW,243,0.0,0.0,100,0.00,,,0.00,VWS V14.01,2013-01-10 07:14:00,
2013-01-10 02:19:00,48.3,48.3,29.94,WSW,243,0.0,0.0,100,0.00,,,0.00,VWS V14.01,2013-01-10 07:19:00,
2013-01-10 02:20:00,48.3,48.3,29.94,WSW,243,0.0,0.0,100,0.00,,,0.00,VWS V14.01,2013-01-10 07:20:00,
2013-01-10 02:29:00,48.3,48.3,29.94,WSW,243,0.0,0.0,100,0.00,,,0.00,VWS V14.01,2013-01-10 07:29:00,
2013-01-10 02:34:00,48.3,48.3,29.94,WSW,243,0.0,0.0,100,0.00,,,0.00,VWS V14.01,2013-01-10 07:34:00,
2013-01-10 02:39:00,48.3,48.3,29.94,WSW,243,0.0,0.0,100,0.00,,,0.00,VWS V14.01,2013-01-10 07:39:00,
2013-01-10 02:44:00,47.9,47.9,29.94,WSW,243,0.0,0.0,100,0.00,,,0.00,VWS V14.01,2013-01-10 07:44:00,
2013-01-10 02:49:00,48.1,48.1,29.91,WSW,243,0.0,0.0,100,0.00,,,0.00,VWS V14.01,2013-01-10 07:49:00,
2013-01-10 02:50:00,48.1,48.1,29.91,WSW,243,0.0,0.0,100,0.00,,,0.00,VWS V14.01,2013-01-10 07:50:00,
2013-01-10 02:59:00,47.9,47.9,29.91,WSW,243,0.0,0.0,100,0.00,,,0.00,VWS V14.01,2013-01-10 07:59:00,
2013-01-10 03:00:00,47.9,47.9,29.91,WSW,243,0.0,0.0,100,0.00,,,0.00,VWS V14.01,2013-01-10 08:00:00,
2013-01-10 03:09:00,47.4,47.4,29.91,WSW,243,0.0,0.0,100,0.00,,,0.00,VWS V14.01,2013-01-10 08:09:00,
2013-01-10 03:14:00,47.4,47.4,29.91,WSW,243,0.0,0.0,100,0.00,,,0.00,VWS V14.01,2013-01-10 08:14:00,
2013-01-10 03:19:00,47.2,47.2,29.91,WSW,243,0.0,0.0,100,0.00,,,0.00,VWS V14.01,2013-01-10 08:19:00,
2013-01-10 03:24:00,47.2,47.2,29.91,WSW,243,0.0,0.0,100,0.00,,,0.00,VWS V14.01,2013-01-10 08:24:00,
2013-01-10 03:29:00,47.6,47.6,29.91,WSW,243,0.0,0.0,100,0.00,,,0.00,VWS V14.01,2013-01-10 08:29:00,
2013-01-10 03:30:00,47.6,47.6,29.91,WSW,243,0.0,0.0,100,0.00,,,0.00,VWS V14.01,2013-01-10 08:30:00,
2013-01-10 03:34:00,47.6,47.6,29.91,WSW,243,0.0,0.0,100,0.00,,,0.00,VWS V14.01,2013-01-10 08:34:00,
2013-01-10 03:39:00,47.4,47.4,29.91,WSW,243,0.0,0.0,100,0.00,,,0.00,VWS V14.01,2013-01-10 08:39:00,
2013-01-10 03:40:00,47.4,47.4,29.91,WSW,243,0.0,0.0,100,0.00,,,0.00,VWS V14.01,2013-01-10 08:40:00,
2013-01-10 03:44:00,47.4,47.4,29.91,WSW,243,0.0,0.0,100,0.00,,,0.00,VWS V14.01,2013-01-10 08:44:00,
2013-01-10 03:49:00,47.4,47.4,29.91,WSW,243,0.0,0.0,100,0.00,,,0.00,VWS V14.01,2013-01-10 08:49:00,
2013-01-10 03:50:00,47.4,47.4,29.91,WSW,243,0.0,0.0,100,0.00,,,0.00,VWS V14.01,2013-01-10 08:50:00,
2013-01-10 03:54:00,47.0,47.0,29.91,WSW,243,0.0,0.0,100,0.00,,,0.00,VWS V14.01,2013-01-10 08:54:00,
2013-01-10 03:59:00,47.0,47.0,29.91,WSW,243,0.0,0.0,100,0.00,,,0.00,VWS V14.01,2013-01-10 08:59:00,
2013-01-10 04:00:00,47.0,47.0,29.91,WSW,243,0.0,0.0,100,0.00,,,0.00,VWS V14.01,2013-01-10 09:00:00,
2013-01-10 04:04:00,47.0,47.0,29.91,WSW,243,0.0,0.0,100,0.00,,,0.00,VWS V14.01,2013-01-10 09:04:00,
2013-01-10 04:09:00,47.0,47.0,29.91,WSW,243,0.0,0.0,100,0.00,,,0.00,VWS V14.01,2013-01-10 09:09:00,
2013-01-10 04:10:00,47.0,47.0,29.91,WSW,243,0.0,0.0,100,0.00,,,0.00,VWS V14.01,2013-01-10 09:10:00,
2013-01-10 04:14:00,47.0,47.0,29.91,WSW,243,0.0,0.0,100,0.00,,,0.00,VWS V14.01,2013-01-10 09:14:00,
2013-01-10 04:19:00,47.0,47.0,29.91,WSW,243,0.0,0.0,100,0.00,,,0.00,VWS V14.01,2013-01-10 09:19:00,
2013-01-10 04:20:00,47.0,47.0,29.91,WSW,243,0.0,0.0,100,0.00,,,0.00,VWS V14.01,2013-01-10 09:20:00,
2013-01-10 04:29:00,47.0,47.0,29.91,WSW,243,0.0,0.0,100,0.00,,,0.00,VWS V14.01,2013-01-10 09:29:00,
2013-01-10 04:30:00,47.0,47.0,29.91,WSW,243,0.0,0.0,100,0.00,,,0.00,VWS V14.01,2013-01-10 09:30:00,
2013-01-10 04:39:00,46.8,46.8,29.91,WSW,243,0.0,0.0,100,0.00,,,0.00,VWS V14.01,2013-01-10 09:39:00,
2013-01-10 04:44:00,46.7,46.7,29.91,WSW,243,0.0,0.0,100,0.00,,,0.00,VWS V14.01,2013-01-10 09:44:00,
2013-01-10 04:49:00,46.7,46.7,29.91,WSW,243,0.0,0.0,100,0.00,,,0.00,VWS V14.01,2013-01-10 09:49:00,
2013-01-10 04:50:00,46.7,46.7,29.91,WSW,243,0.0,0.0,100,0.00,,,0.00,VWS V14.01,2013-01-10 09:50:00,
2013-01-10 04:54:00,46.7,46.7,29.91,WSW,243,0.0,0.0,100,0.00,,,0.00,VWS V14.01,2013-01-10 09:54:00,
2013-01-10 04:59:00,46.7,46.7,29.91,WSW,243,0.0,0.0,100,0.00,,,0.00,VWS V14.01,2013-01-10 09:59:00,
2013-01-10 05:00:00,46.7,46.7,29.91,WSW,243,0.0,0.0,100,0.00,,,0.00,VWS V14.01,2013-01-10 10:00:00,
2013-01-10 05:04:00,46.7,46.7,29.91,WSW,243,0.0,0.0,100,0.00,,,0.00,VWS V14.01,2013-01-10 10:04:00,
2013-01-10 05:09:00,46.8,46.8,29.91,WSW,243,0.0,0.0,100,0.00,,,0.00,VWS V14.01,2013-01-10 10:09:00,
2013-01-10 05:14:00,47.0,47.0,29.91,WSW,243,0.0,0.0,100,0.00,,,0.00,VWS V14.01,2013-01-10 10:14:00,
2013-01-10 05:19:00,47.4,47.4,29.91,WSW,243,0.0,0.0,100,0.00,,,0.00,VWS V14.01,2013-01-10 10:19:00,
2013-01-10 05:20:00,47.4,47.4,29.91,WSW,243,0.0,0.0,100,0.00,,,0.00,VWS V14.01,2013-01-10 10:20:00,
2013-01-10 05:24:00,47.4,47.4,29.91,WSW,243,0.0,0.0,100,0.00,,,0.00,VWS V14.01,2013-01-10 10:24:00,
2013-01-10 05:29:00,47.9,47.9,29.91,WSW,243,0.0,0.0,100,0.00,,,0.00,VWS V14.01,2013-01-10 10:29:00,
2013-01-10 05:30:00,47.9,47.9,29.91,WSW,243,0.0,0.0,100,0.00,,,0.00,VWS V14.01,2013-01-10 10:30:00,
2013-01-10 05:34:00,48.3,48.3,29.91,WSW,243,0.0,0.0,100,0.00,,,0.00,VWS V14.01,2013-01-10 10:34:00,
2013-01-10 05:40:00,48.6,48.6,29.91,WSW,243,0.0,0.0,100,0.00,,,0.00,VWS V14.01,2013-01-10 10:40:00,
2013-01-10 05:45:00,48.8,48.8,29.91,WSW,243,0.0,0.0,100,0.00,,,0.00,VWS V14.01,2013-01-10 10:45:00,
2013-01-10 05:50:00,49.2,49.2,29.91,WSW,243,0.0,0.0,100,0.00,,,0.00,VWS V14.01,2013-01-10 10:50:00,
2013-01-10 05:55:00,49.2,49.2,29.91,WSW,243,0.0,0.0,100,0.00,,,0.00,VWS V14.01,2013-01-10 10:55:00,
2013-01-10 06:00:00,49.4,49.4,29.91,WSW,243,0.0,0.0,100,0.00,,,0.00,VWS V14.01,2013-01-10 11:00:00,
2013-01-10 06:05:00,49.5,49.5,29.91,WSW,243,0.0,0.0,100,0.00,,,0.00,VWS V14.01,2013-01-10 11:05:00,
2013-01-10 06:10:00,49.5,49.5,29.91,WSW,243,0.0,0.0,100,0.00,,,0.00,VWS V14.01,2013-01-10 11:10:00,
2013-01-10 06:20:00,49.9,49.9,29.91,WSW,243,0.0,0.0,100,0.00,,,0.00,VWS V14.01,2013-01-10 11:20:00,
2013-01-10 06:25:00,49.9,49.9,29.91,WSW,243,0.0,0.0,100,0.00,,,0.00,VWS V14.01,2013-01-10 11:25:00,
2013-01-10 06:30:00,49.9,49.9,29.91,WSW,243,0.0,0.0,100,0.00,,,0.00,VWS V14.01,2013-01-10 11:30:00,
2013-01-10 06:35:00,49.9,49.9,29.91,WSW,243,0.0,0.0,100,0.00,,,0.00,VWS V14.01,2013-01-10 11:35:00,
2013-01-10 06:40:00,50.1,50.1,29.91,WSW,243,0.0,0.0,100,0.00,,,0.00,VWS V14.01,2013-01-10 11:40:00,
2013-01-10 06:45:00,49.9,49.9,29.91,WSW,243,0.0,0.0,100,0.00,,,0.00,VWS V14.01,2013-01-10 11:45:00,
2013-01-10 06:50:00,49.9,49.9,29.91,WSW,243,0.0,0.0,100,0.00,,,0.00,VWS V14.01,2013-01-10 11:50:00,
2013-01-10 06:55:00,49.9,49.9,29.91,WSW,243,0.0,0.0,100,0.00,,,0.00,VWS V14.01,2013-01-10 11:55:00,
2013-01-10 07:00:00,49.5,49.5,29.91,WSW,243,0.0,0.0,100,0.00,,,0.00,VWS V14.01,2013-01-10 12:00:00,
2013-01-10 07:05:00,49.5,49.5,29.91,WSW,243,0.0,0.0,100,0.00,,,0.00,VWS V14.01,2013-01-10 12:05:00,
2013-01-10 07:10:00,49.4,49.4,29.91,WSW,243,0.0,0.0,100,0.00,,,0.00,VWS V14.01,2013-01-10 12:10:00,
2013-01-10 07:15:00,49.4,49.4,29.91,WSW,243,0.0,0.0,100,0.00,,,0.00,VWS V14.01,2013-01-10 12:15:00,
2013-01-10 07:20:00,49.4,49.4,29.91,WSW,243,0.0,0.0,100,0.00,,,0.00,VWS V14.01,2013-01-10 12:20:00,
2013-01-10 07:25:00,49.4,49.4,29.91,SW,226,0.0,0.0,100,0.00,,,0.00,VWS V14.01,2013-01-10 12:25:00,
2013-01-10 07:30:00,49.4,49.4,29.91,SW,226,0.0,0.0,100,0.00,,,0.00,VWS V14.01,2013-01-10 12:30:00,
2013-01-10 07:35:00,49.4,49.4,29.91,SW,226,0.0,0.0,100,0.00,,,0.00,VWS V14.01,2013-01-10 12:35:00,
2013-01-10 07:40:00,49.5,49.5,29.91,SW,226,0.0,0.0,100,0.00,,,0.00,VWS V14.01,2013-01-10 12:40:00,
2013-01-10 07:45:00,49.5,49.5,29.91,SW,226,0.0,0.0,100,0.00,,,0.00,VWS V14.01,2013-01-10 12:45:00,
2013-01-10 07:50:00,49.7,49.7,29.91,SW,226,0.0,0.0,100,0.00,,,0.00,VWS V14.01,2013-01-10 12:50:00,
2013-01-10 07:55:00,49.7,49.7,29.91,SW,231,2.7,2.7,100,0.00,,,0.00,VWS V14.01,2013-01-10 12:55:00,
2013-01-10 08:00:00,49.7,49.7,29.91,SW,231,0.0,2.7,100,0.00,,,0.00,VWS V14.01,2013-01-10 13:00:00,
2013-01-10 08:05:00,49.7,49.7,29.91,SW,233,0.0,0.0,100,0.00,,,0.00,VWS V14.01,2013-01-10 13:05:00,
2013-01-10 08:10:00,50.1,50.1,29.91,SW,233,0.0,0.0,100,0.00,,,0.00,VWS V14.01,2013-01-10 13:10:00,
2013-01-10 08:15:00,50.1,50.1,29.91,South,187,0.0,0.0,100,0.00,,,0.00,VWS V14.01,2013-01-10 13:15:00,
2013-01-10 08:20:00,50.3,50.3,29.91,South,187,0.0,0.0,100,0.00,,,0.00,VWS V14.01,2013-01-10 13:20:00,
2013-01-10 08:25:00,50.4,50.4,29.91,SSW,193,0.0,0.0,100,0.00,,,0.00,VWS V14.01,2013-01-10 13:25:00,
2013-01-10 08:30:00,50.4,50.4,29.91,SSW,193,0.0,0.0,100,0.00,,,0.00,VWS V14.01,2013-01-10 13:30:00,
2013-01-10 08:35:00,51.2,51.2,29.94,SSW,193,0.0,0.0,100,0.00,,,0.00,VWS V14.01,2013-01-10 13:35:00,
2013-01-10 08:40:00,51.7,51.7,29.94,SSE,157,0.0,0.0,100,0.00,,,0.00,VWS V14.01,2013-01-10 13:40:00,
2013-01-10 08:45:00,52.1,52.1,29.94,SSE,157,0.0,0.0,100,0.00,,,0.00,VWS V14.01,2013-01-10 13:45:00,
2013-01-10 08:50:00,52.1,52.1,29.94,South,185,0.0,0.0,100,0.00,,,0.00,VWS V14.01,2013-01-10 13:50:00,
2013-01-10 08:55:00,52.1,52.1,29.94,WSW,238,0.0,2.7,100,0.00,,,0.00,VWS V14.01,2013-01-10 13:55:00,
2013-01-10 09:00:00,55.1,55.1,29.94,SW,229,0.0,2.7,100,0.00,,,0.00,VWS V14.01,2013-01-10 14:00:00,
2013-01-10 09:05:00,56.6,56.6,29.94,SSW,207,0.0,2.7,100,0.00,,,0.00,VWS V14.01,2013-01-10 14:05:00,
2013-01-10 09:10:00,56.6,56.6,29.94,SW,234,2.7,3.6,100,0.00,,,0.00,VWS V14.01,2013-01-10 14:10:00,
2013-01-10 09:15:00,59.3,59.3,29.94,SSW,209,0.0,2.7,100,0.00,,,0.00,VWS V14.01,2013-01-10 14:15:00,
2013-01-10 09:20:00,60.2,60.2,29.94,South,172,2.7,2.7,100,0.00,,,0.00,VWS V14.01,2013-01-10 14:20:00,
2013-01-10 09:25:00,61.2,61.2,29.94,WSW,252,0.0,4.9,100,0.00,,,0.00,VWS V14.01,2013-01-10 14:25:00,
2013-01-10 09:30:00,61.4,61.4,29.94,SE,126,2.7,4.9,100,0.00,,,0.00,VWS V14.01,2013-01-10 14:30:00,
2013-01-10 09:35:00,61.4,61.4,29.94,West,268,0.0,3.1,100,0.00,,,0.00,VWS V14.01,2013-01-10 14:35:00,
2013-01-10 09:40:00,63.0,63.0,29.94,West,271,0.0,3.6,100,0.00,,,0.00,VWS V14.01,2013-01-10 14:40:00,
2013-01-10 09:45:00,64.1,64.1,29.94,WNW,300,0.0,3.6,100,0.00,,,0.00,VWS V14.01,2013-01-10 14:45:00,
2013-01-10 09:50:00,64.3,64.3,29.94,South,188,0.0,4.0,100,0.00,,,0.00,VWS V14.01,2013-01-10 14:50:00,
2013-01-10 09:55:00,64.3,64.3,29.94,NW,305,2.7,3.1,100,0.00,,,0.00,VWS V14.01,2013-01-10 14:55:00,
2013-01-10 10:00:00,65.0,64.7,29.94,NW,312,0.0,3.1,99,0.00,,,0.00,VWS V14.01,2013-01-10 15:00:00,
2013-01-10 10:05:00,65.4,63.7,29.94,WSW,252,2.2,3.1,94,0.00,,,0.00,VWS V14.01,2013-01-10 15:05:00,
2013-01-10 10:10:00,67.2,62.6,29.94,West,277,0.0,0.0,85,0.00,,,0.00,VWS V14.01,2013-01-10 15:10:00,
2013-01-10 10:15:00,67.7,62.3,29.94,South,169,2.7,2.7,83,0.00,,,0.00,VWS V14.01,2013-01-10 15:15:00,
2013-01-10 10:20:00,68.6,62.4,29.94,SW,224,3.6,4.0,80,0.00,,,0.00,VWS V14.01,2013-01-10 15:20:00,
2013-01-10 10:25:00,68.8,62.6,29.94,North,353,0.0,3.6,80,0.00,,,0.00,VWS V14.01,2013-01-10 15:25:00,
2013-01-10 10:30:00,68.8,62.6,29.97,WSW,257,0.0,4.0,80,0.00,,,0.00,VWS V14.01,2013-01-10 15:30:00,
2013-01-10 10:35:00,69.3,63.1,29.97,South,180,0.0,0.0,80,0.00,,,0.00,VWS V14.01,2013-01-10 15:35:00,
2013-01-10 10:40:00,69.3,62.3,29.97,South,188,2.7,3.1,78,0.00,,,0.00,VWS V14.01,2013-01-10 15:40:00,
2013-01-10 10:45:00,69.2,62.1,29.97,WSW,252,0.0,2.7,78,0.00,,,0.00,VWS V14.01,2013-01-10 15:45:00,
2013-01-10 10:50:00,69.2,62.1,29.97,SE,133,5.4,5.4,78,0.00,,,0.00,VWS V14.01,2013-01-10 15:50:00,
2013-01-10 10:55:00,68.3,62.8,29.97,WSW,239,2.2,5.4,83,0.00,,,0.00,VWS V14.01,2013-01-10 15:55:00,
2013-01-10 11:00:00,68.3,62.8,29.97,West,276,3.1,5.4,83,0.00,,,0.00,VWS V14.01,2013-01-10 16:00:00,
2013-01-10 11:06:00,69.0,62.7,29.97,West,263,2.7,3.6,80,0.00,,,0.00,VWS V14.01,2013-01-10 16:06:00,
2013-01-10 11:10:00,69.0,62.7,29.97,South,172,2.2,3.6,80,0.00,,,0.00,VWS V14.01,2013-01-10 16:10:00,
2013-01-10 11:16:00,69.0,62.7,29.97,SW,214,3.6,3.6,80,0.00,,,0.00,VWS V14.01,2013-01-10 16:16:00,
2013-01-10 11:20:00,69.2,62.1,29.97,ENE,78,3.1,4.0,78,0.00,,,0.00,VWS V14.01,2013-01-10 16:20:00,
2013-01-10 11:21:00,69.2,62.1,29.97,SW,219,3.1,3.1,78,0.00,,,0.00,VWS V14.01,2013-01-10 16:21:00,
2013-01-10 11:26:00,69.3,62.3,29.97,NE,49,2.7,3.1,78,0.00,,,0.00,VWS V14.01,2013-01-10 16:26:00,
2013-01-10 11:30:00,69.3,62.3,29.97,North,0,2.7,3.6,78,0.00,,,0.00,VWS V14.01,2013-01-10 16:30:00,
2013-01-10 11:31:00,69.3,62.3,29.97,NNW,348,0.0,3.1,78,0.00,,,0.00,VWS V14.01,2013-01-10 16:31:00,
2013-01-10 11:36:00,70.8,62.8,29.97,West,280,0.0,3.6,76,0.00,,,0.00,VWS V14.01,2013-01-10 16:36:00,
2013-01-10 11:40:00,70.8,62.8,29.94,ENE,72,4.9,4.9,76,0.00,,,0.00,VWS V14.01,2013-01-10 16:40:00,
2013-01-10 11:41:00,71.5,62.6,29.94,NW,306,2.7,4.9,74,0.00,,,0.00,VWS V14.01,2013-01-10 16:41:00,
2013-01-10 11:46:00,71.5,62.6,29.94,North,6,0.0,4.9,74,0.00,,,0.00,VWS V14.01,2013-01-10 16:46:00,
2013-01-10 11:50:00,71.7,62.8,29.94,SSW,194,2.2,4.9,74,0.00,,,0.00,VWS V14.01,2013-01-10 16:50:00,
2013-01-10 11:51:00,71.7,62.8,29.94,SSW,192,0.0,2.2,74,0.00,,,0.00,VWS V14.01,2013-01-10 16:51:00,
2013-01-10 11:56:00,71.7,62.8,29.94,West,280,2.2,4.9,74,0.00,,,0.00,VWS V14.01,2013-01-10 16:56:00,
2013-01-10 12:00:00,73.1,61.4,29.94,South,170,3.6,4.9,67,0.00,,,0.00,VWS V14.01,2013-01-10 17:00:00,
2013-01-10 12:01:00,73.1,61.4,29.94,SSE,164,3.1,3.6,67,0.00,,,0.00,VWS V14.01,2013-01-10 17:01:00,
2013-01-10 12:06:00,73.3,60.6,29.94,East,91,3.6,6.3,64,0.00,,,0.00,VWS V14.01,2013-01-10 17:06:00,
2013-01-10 12:10:00,73.3,59.5,29.94,WSW,237,4.9,6.3,62,0.00,,,0.00,VWS V14.01,2013-01-10 17:10:00,
2013-01-10 12:16:00,72.9,60.2,29.94,NE,54,5.8,5.8,64,0.00,,,0.00,VWS V14.01,2013-01-10 17:16:00,
2013-01-10 12:20:00,72.9,60.2,29.94,ENE,59,4.9,6.3,64,0.00,,,0.00,VWS V14.01,2013-01-10 17:20:00,
2013-01-10 12:21:00,72.6,59.9,29.94,North,6,5.8,5.8,64,0.00,,,0.00,VWS V14.01,2013-01-10 17:21:00,
2013-01-10 12:26:00,72.6,59.9,29.94,NNW,338,4.0,5.8,64,0.00,,,0.00,VWS V14.01,2013-01-10 17:26:00,
2013-01-10 12:30:00,72.2,58.5,29.94,NNW,329,3.1,5.8,62,0.00,,,0.00,VWS V14.01,2013-01-10 17:30:00,
2013-01-10 12:31:00,72.2,59.5,29.94,ENE,59,3.1,3.1,64,0.00,,,0.00,VWS V14.01,2013-01-10 17:31:00,
2013-01-10 12:36:00,72.4,59.7,29.94,NNE,27,5.4,5.4,64,0.00,,,0.00,VWS V14.01,2013-01-10 17:36:00,
2013-01-10 12:40:00,73.1,57.2,29.94,West,266,3.6,7.6,58,0.00,,,0.00,VWS V14.01,2013-01-10 17:40:00,
2013-01-10 12:46:00,73.3,57.4,29.94,East,88,2.7,4.9,58,0.00,,,0.00,VWS V14.01,2013-01-10 17:46:00,
2013-01-10 12:50:00,73.3,57.4,29.94,SW,224,0.0,4.9,58,0.00,,,0.00,VWS V14.01,2013-01-10 17:50:00,
2013-01-10 12:51:00,72.8,55.8,29.94,NNW,327,2.7,5.4,55,0.00,,,0.00,VWS V14.01,2013-01-10 17:51:00,
2013-01-10 12:56:00,73.1,57.2,29.94,SW,230,3.6,5.4,58,0.00,,,0.00,VWS V14.01,2013-01-10 17:56:00,
2013-01-10 13:01:00,73.8,57.9,29.94,ESE,110,2.7,2.7,58,0.00,,,0.00,VWS V14.01,2013-01-10 18:01:00,
2013-01-10 13:06:00,74.6,56.3,29.94,SW,230,6.3,6.3,53,0.00,,,0.00,VWS V14.01,2013-01-10 18:06:00,
2013-01-10 13:10:00,74.6,56.3,29.94,NNW,337,3.6,6.3,53,0.00,,,0.00,VWS V14.01,2013-01-10 18:10:00,
2013-01-10 13:16:00,75.1,55.5,29.94,ENE,64,4.0,5.4,51,0.00,,,0.00,VWS V14.01,2013-01-10 18:16:00,
2013-01-10 13:20:00,74.6,56.3,29.94,NE,56,4.0,5.4,53,0.00,,,0.00,VWS V14.01,2013-01-10 18:20:00,
2013-01-10 13:21:00,74.4,54.9,29.94,NNE,21,3.1,4.0,51,0.00,,,0.00,VWS V14.01,2013-01-10 18:21:00,
2013-01-10 13:26:00,74.4,56.1,29.94,WSW,247,0.0,4.9,53,0.00,,,0.00,VWS V14.01,2013-01-10 18:26:00,
2013-01-10 13:30:00,74.4,56.1,29.94,North,357,4.0,7.6,53,0.00,,,0.00,VWS V14.01,2013-01-10 18:30:00,
2013-01-10 13:31:00,74.4,56.1,29.94,North,357,5.4,5.4,53,0.00,,,0.00,VWS V14.01,2013-01-10 18:31:00,
2013-01-10 13:36:00,74.4,56.1,29.94,NNE,19,6.3,6.3,53,0.00,,,0.00,VWS V14.01,2013-01-10 18:36:00,
2013-01-10 13:41:00,74.6,56.3,29.94,SE,139,2.7,4.0,53,0.00,,,0.00,VWS V14.01,2013-01-10 18:41:00,
2013-01-10 13:46:00,75.5,55.9,29.94,SW,225,0.0,4.9,51,0.00,,,0.00,VWS V14.01,2013-01-10 18:46:00,
2013-01-10 13:51:00,75.5,55.9,29.91,NNE,29,3.1,5.4,51,0.00,,,0.00,VWS V14.01,2013-01-10 18:51:00,
2013-01-10 13:56:00,76.0,56.4,29.91,SW,230,5.4,5.4,51,0.00,,,0.00,VWS V14.01,2013-01-10 18:56:00,
2013-01-10 14:01:00,75.3,55.7,29.91,NW,304,3.6,4.0,51,0.00,,,0.00,VWS V14.01,2013-01-10 19:01:00,
2013-01-10 14:06:00,74.9,55.4,29.91,WNW,289,3.6,5.4,51,0.00,,,0.00,VWS V14.01,2013-01-10 19:06:00,
2013-01-10 14:10:00,74.7,55.2,29.91,WSW,245,4.0,6.3,51,0.00,,,0.00,VWS V14.01,2013-01-10 19:10:00,
2013-01-10 14:11:00,74.7,55.2,29.91,NE,55,4.0,4.0,51,0.00,,,0.00,VWS V14.01,2013-01-10 19:11:00,
2013-01-10 14:16:00,75.8,56.2,29.91,NE,51,2.2,4.5,51,0.00,,,0.00,VWS V14.01,2013-01-10 19:16:00,
2013-01-10 14:20:00,76.0,56.4,29.91,NNE,33,2.2,4.9,51,0.00,,,0.00,VWS V14.01,2013-01-10 19:20:00,
2013-01-10 14:21:00,76.0,56.4,29.91,SSW,209,3.1,3.1,51,0.00,,,0.00,VWS V14.01,2013-01-10 19:21:00,
2013-01-10 14:26:00,75.6,56.0,29.91,NE,47,3.6,5.8,51,0.00,,,0.00,VWS V14.01,2013-01-10 19:26:00,
2013-01-10 14:31:00,74.6,55.0,29.91,North,1,5.4,5.4,51,0.00,,,0.00,VWS V14.01,2013-01-10 19:31:00,
2013-01-10 14:36:00,74.6,55.0,29.91,NNE,15,5.8,6.3,51,0.00,,,0.00,VWS V14.01,2013-01-10 19:36:00,
2013-01-10 14:40:00,73.3,55.1,29.91,NNE,19,5.4,6.3,53,0.00,,,0.00,VWS V14.01,2013-01-10 19:40:00,
2013-01-10 14:41:00,73.1,54.9,29.91,NE,47,2.7,5.4,53,0.00,,,0.00,VWS V14.01,2013-01-10 19:41:00,
2013-01-10 14:46:00,73.1,54.9,29.91,SW,233,2.7,7.6,53,0.00,,,0.00,VWS V14.01,2013-01-10 19:46:00,
2013-01-10 14:50:00,74.0,57.0,29.91,North,353,2.7,7.6,55,0.00,,,0.00,VWS V14.01,2013-01-10 19:50:00,
2013-01-10 14:51:00,74.4,56.1,29.91,NW,316,3.6,3.6,53,0.00,,,0.00,VWS V14.01,2013-01-10 19:51:00,
2013-01-10 14:56:00,74.4,56.1,29.91,NE,36,5.4,6.3,53,0.00,,,0.00,VWS V14.01,2013-01-10 19:56:00,
2013-01-10 15:01:00,73.1,54.9,29.91,NNE,26,5.4,6.3,53,0.00,,,0.00,VWS V14.01,2013-01-10 20:01:00,
2013-01-10 15:06:00,73.1,54.9,29.91,North,353,3.1,6.3,53,0.00,,,0.00,VWS V14.01,2013-01-10 20:06:00,
2013-01-10 15:10:00,73.1,54.9,29.91,ESE,106,3.6,6.3,53,0.00,,,0.00,VWS V14.01,2013-01-10 20:10:00,
2013-01-10 15:16:00,72.8,55.8,29.91,NNE,25,2.2,4.0,55,0.00,,,0.00,VWS V14.01,2013-01-10 20:16:00,
2013-01-10 15:21:00,72.8,55.8,29.91,North,4,3.1,3.1,55,0.00,,,0.00,VWS V14.01,2013-01-10 20:21:00,
2013-01-10 15:26:00,72.8,55.8,29.91,NNE,31,5.4,5.8,55,0.00,,,0.00,VWS V14.01,2013-01-10 20:26:00,
2013-01-10 15:30:00,72.8,55.8,29.91,WNW,294,3.1,5.8,55,0.00,,,0.00,VWS V14.01,2013-01-10 20:30:00,
2013-01-10 15:31:00,72.8,55.8,29.91,NNW,339,4.9,4.9,55,0.00,,,0.00,VWS V14.01,2013-01-10 20:31:00,
2013-01-10 15:36:00,72.0,56.2,29.91,North,0,2.7,4.9,58,0.00,,,0.00,VWS V14.01,2013-01-10 20:36:00,
2013-01-10 15:40:00,72.0,56.2,29.91,SW,230,3.1,4.9,58,0.00,,,0.00,VWS V14.01,2013-01-10 20:40:00,
2013-01-10 15:46:00,71.9,56.1,29.91,NNW,332,2.2,4.5,58,0.00,,,0.00,VWS V14.01,2013-01-10 20:46:00,
2013-01-10 15:50:00,71.9,56.1,29.91,South,175,2.2,4.5,58,0.00,,,0.00,VWS V14.01,2013-01-10 20:50:00,
2013-01-10 15:51:00,71.9,56.1,29.91,NE,47,2.7,3.6,58,0.00,,,0.00,VWS V14.01,2013-01-10 20:51:00,
2013-01-10 15:56:00,72.6,56.7,29.91,SW,231,0.0,3.6,58,0.00,,,0.00,VWS V14.01,2013-01-10 20:56:00,
2013-01-10 16:00:00,73.1,57.2,29.91,NNE,29,2.7,3.6,58,0.00,,,0.00,VWS V14.01,2013-01-10 21:00:00,
2013-01-10 16:01:00,73.3,57.4,29.91,WNW,288,2.7,2.7,58,0.00,,,0.00,VWS V14.01,2013-01-10 21:01:00,
2013-01-10 16:06:00,73.3,56.3,29.91,NNE,14,3.1,3.6,55,0.00,,,0.00,VWS V14.01,2013-01-10 21:06:00,
2013-01-10 16:10:00,73.3,56.3,29.91,North,4,2.7,4.0,55,0.00,,,0.00,VWS V14.01,2013-01-10 21:10:00,
2013-01-10 16:11:00,73.3,56.3,29.91,South,180,3.1,3.1,55,0.00,,,0.00,VWS V14.01,2013-01-10 21:11:00,
2013-01-10 16:16:00,72.9,57.1,29.91,WSW,241,2.2,3.6,58,0.00,,,0.00,VWS V14.01,2013-01-10 21:16:00,
2013-01-10 16:20:00,72.6,56.7,29.91,SW,218,2.2,3.6,58,0.00,,,0.00,VWS V14.01,2013-01-10 21:20:00,
2013-01-10 16:26:00,72.6,56.7,29.91,NNW,343,0.0,2.7,58,0.00,,,0.00,VWS V14.01,2013-01-10 21:26:00,
2013-01-10 16:31:00,72.6,56.7,29.91,NNW,346,3.1,3.1,58,0.00,,,0.00,VWS V14.01,2013-01-10 21:31:00,
2013-01-10 16:36:00,71.9,56.1,29.91,SE,126,2.7,3.6,58,0.00,,,0.00,VWS V14.01,2013-01-10 21:36:00,
2013-01-10 16:40:00,71.9,57.2,29.91,ESE,108,0.0,3.6,60,0.00,,,0.00,VWS V14.01,2013-01-10 21:40:00,
2013-01-10 16:41:00,71.9,57.2,29.91,SW,221,2.2,2.2,60,0.00,,,0.00,VWS V14.01,2013-01-10 21:41:00,
2013-01-10 16:46:00,71.9,57.2,29.94,South,170,3.1,3.6,60,0.00,,,0.00,VWS V14.01,2013-01-10 21:46:00,
2013-01-10 16:50:00,71.7,57.0,29.94,SSW,200,0.0,3.6,60,0.00,,,0.00,VWS V14.01,2013-01-10 21:50:00,
2013-01-10 16:51:00,71.7,57.0,29.94,South,191,0.0,3.1,60,0.00,,,0.00,VWS V14.01,2013-01-10 21:51:00,
2013-01-10 16:56:00,71.7,57.0,29.94,South,188,0.0,3.1,60,0.00,,,0.00,VWS V14.01,2013-01-10 21:56:00,
2013-01-10 17:01:00,70.8,57.2,29.94,South,188,0.0,0.0,62,0.00,,,0.00,VWS V14.01,2013-01-10 22:01:00,
2013-01-10 17:06:00,70.8,57.2,29.94,South,188,0.0,0.0,62,0.00,,,0.00,VWS V14.01,2013-01-10 22:06:00,
2013-01-10 17:10:00,69.9,58.3,29.94,South,188,0.0,0.0,67,0.00,,,0.00,VWS V14.01,2013-01-10 22:10:00,
2013-01-10 17:17:00,69.3,59.7,29.94,South,188,0.0,0.0,71,0.00,,,0.00,VWS V14.01,2013-01-10 22:17:00,
2013-01-10 17:20:00,69.2,60.4,29.94,South,188,0.0,0.0,74,0.00,,,0.00,VWS V14.01,2013-01-10 22:20:00,
2013-01-10 17:27:00,69.0,60.2,29.94,South,188,0.0,0.0,74,0.00,,,0.00,VWS V14.01,2013-01-10 22:27:00,
2013-01-10 17:32:00,68.3,60.4,29.94,South,188,0.0,0.0,76,0.00,,,0.00,VWS V14.01,2013-01-10 22:32:00,
2013-01-10 17:37:00,67.9,60.0,29.94,SSW,203,0.0,2.7,76,0.00,,,0.00,VWS V14.01,2013-01-10 22:37:00,
2013-01-10 17:40:00,67.7,59.8,29.94,SSW,203,0.0,2.7,76,0.00,,,0.00,VWS V14.01,2013-01-10 22:40:00,
2013-01-10 17:42:00,67.7,59.8,29.94,SSW,203,0.0,0.0,76,0.00,,,0.00,VWS V14.01,2013-01-10 22:42:00,
2013-01-10 17:47:00,67.7,59.8,29.94,SSW,204,0.0,0.0,76,0.00,,,0.00,VWS V14.01,2013-01-10 22:47:00,
2013-01-10 17:57:00,67.4,59.5,29.94,West,278,0.0,2.7,76,0.00,,,0.00,VWS V14.01,2013-01-10 22:57:00,
2013-01-10 18:00:00,67.4,59.5,29.94,West,278,0.0,2.7,76,0.00,,,0.00,VWS V14.01,2013-01-10 23:00:00,
2013-01-10 18:02:00,67.4,59.5,29.94,North,0,3.1,3.1,76,0.00,,,0.00,VWS V14.01,2013-01-10 23:02:00,
2013-01-10 18:07:00,67.4,59.5,29.94,NNW,342,3.1,3.1,76,0.00,,,0.00,VWS V14.01,2013-01-10 23:07:00,
2013-01-10 18:12:00,67.4,59.5,29.94,NNE,12,3.1,5.4,76,0.00,,,0.00,VWS V14.01,2013-01-10 23:12:00,
2013-01-10 18:17:00,67.0,61.6,29.94,NNW,348,6.3,6.3,83,0.00,,,0.00,VWS V14.01,2013-01-10 23:17:00,
2013-01-10 18:22:00,66.3,61.7,29.94,NW,312,0.0,3.1,85,0.00,,,0.00,VWS V14.01,2013-01-10 23:22:00,
2013-01-10 18:27:00,65.9,64.2,29.94,NNE,26,3.1,4.0,94,0.00,,,0.00,VWS V14.01,2013-01-10 23:27:00,
2013-01-10 18:30:00,65.9,64.2,29.94,NE,49,0.0,4.0,94,0.00,,,0.00,VWS V14.01,2013-01-10 23:30:00,
2013-01-10 18:37:00,64.1,64.1,29.94,NE,48,0.0,2.7,100,0.00,,,0.00,VWS V14.01,2013-01-10 23:37:00,
2013-01-10 18:40:00,63.6,63.6,29.94,NE,54,0.0,2.7,100,0.00,,,0.00,VWS V14.01,2013-01-10 23:40:00,
2013-01-10 18:42:00,63.2,63.2,29.94,West,272,0.0,0.0,100,0.00,,,0.00,VWS V14.01,2013-01-10 23:42:00,
2013-01-10 18:47:00,62.7,62.7,29.94,West,271,0.0,0.0,100,0.00,,,0.00,VWS V14.01,2013-01-10 23:47:00,
2013-01-10 18:50:00,62.5,62.5,29.94,West,271,0.0,0.0,100,0.00,,,0.00,VWS V14.01,2013-01-10 23:50:00,
2013-01-10 18:52:00,62.5,62.5,29.94,West,271,0.0,0.0,100,0.00,,,0.00,VWS V14.01,2013-01-10 23:52:00,
2013-01-10 18:57:00,62.3,62.3,29.94,West,271,0.0,0.0,100,0.00,,,0.00,VWS V14.01,2013-01-10 23:57:00,
2013-01-10 19:00:00,62.1,62.1,29.94,West,271,0.0,0.0,100,0.00,,,0.00,VWS V14.01,2013-01-11 00:00:00,
2013-01-10 19:02:00,62.1,62.1,29.94,West,271,0.0,0.0,100,0.00,,,0.00,VWS V14.01,2013-01-11 00:02:00,
2013-01-10 19:07:00,62.0,62.0,29.94,West,271,0.0,0.0,100,0.00,,,0.00,VWS V14.01,2013-01-11 00:07:00,
2013-01-10 19:12:00,62.0,62.0,29.94,West,271,0.0,0.0,100,0.00,,,0.00,VWS V14.01,2013-01-11 00:12:00,
2013-01-10 19:17:00,61.6,61.6,29.94,West,271,0.0,0.0,100,0.00,,,0.00,VWS V14.01,2013-01-11 00:17:00,
2013-01-10 19:20:00,61.6,61.6,29.94,West,271,0.0,0.0,100,0.00,,,0.00,VWS V14.01,2013-01-11 00:20:00,
2013-01-10 19:22:00,61.6,61.6,29.94,West,271,0.0,0.0,100,0.00,,,0.00,VWS V14.01,2013-01-11 00:22:00,
2013-01-10 19:27:00,61.6,61.6,29.94,West,271,0.0,0.0,100,0.00,,,0.00,VWS V14.01,2013-01-11 00:27:00,
2013-01-10 19:30:00,61.2,61.2,29.94,West,271,0.0,0.0,100,0.00,,,0.00,VWS V14.01,2013-01-11 00:30:00,
2013-01-10 19:32:00,61.2,61.2,29.94,West,271,0.0,0.0,100,0.00,,,0.00,VWS V14.01,2013-01-11 00:32:00,
2013-01-10 19:37:00,61.2,61.2,29.94,West,271,0.0,0.0,100,0.00,,,0.00,VWS V14.01,2013-01-11 00:37:00,
2013-01-10 19:40:00,61.2,61.2,29.94,West,271,0.0,0.0,100,0.00,,,0.00,VWS V14.01,2013-01-11 00:40:00,
2013-01-10 19:42:00,61.1,61.1,29.94,West,271,0.0,0.0,100,0.00,,,0.00,VWS V14.01,2013-01-11 00:42:00,
2013-01-10 19:47:00,61.1,61.1,29.94,West,271,0.0,0.0,100,0.00,,,0.00,VWS V14.01,2013-01-11 00:47:00,
2013-01-10 19:52:00,61.1,61.1,29.91,West,271,0.0,0.0,100,0.00,,,0.00,VWS V14.01,2013-01-11 00:52:00,
2013-01-10 19:57:00,61.1,61.1,29.91,West,271,0.0,0.0,100,0.00,,,0.00,VWS V14.01,2013-01-11 00:57:00,
2013-01-10 20:02:00,61.4,61.4,29.91,NNE,18,2.7,2.7,100,0.00,,,0.00,VWS V14.01,2013-01-11 01:02:00,
2013-01-10 20:07:00,61.4,61.4,29.91,SSW,211,2.7,5.4,100,0.00,,,0.00,VWS V14.01,2013-01-11 01:07:00,
2013-01-10 20:10:00,61.4,61.4,29.91,NNE,33,3.1,5.4,100,0.00,,,0.00,VWS V14.01,2013-01-11 01:10:00,
2013-01-10 20:17:00,61.1,61.1,29.91,SW,233,2.7,4.9,100,0.00,,,0.00,VWS V14.01,2013-01-11 01:17:00,
2013-01-10 20:27:00,60.7,60.7,29.91,NNE,28,2.7,4.0,100,0.00,,,0.00,VWS V14.01,2013-01-11 01:27:00,
2013-01-10 20:32:00,60.7,60.7,29.91,NW,326,2.2,3.1,100,0.00,,,0.00,VWS V14.01,2013-01-11 01:32:00,
2013-01-10 20:37:00,60.3,60.3,29.91,WNW,283,0.0,3.1,100,0.00,,,0.00,VWS V14.01,2013-01-11 01:37:00,
2013-01-10 20:40:00,60.2,60.2,29.91,WNW,283,0.0,3.1,100,0.00,,,0.00,VWS V14.01,2013-01-11 01:40:00,
2013-01-10 20:42:00,60.2,60.2,29.91,South,191,0.0,0.0,100,0.00,,,0.00,VWS V14.01,2013-01-11 01:42:00,
2013-01-10 20:47:00,60.2,60.2,29.91,West,278,0.0,2.7,100,0.00,,,0.00,VWS V14.01,2013-01-11 01:47:00,
2013-01-10 20:50:00,60.2,60.2,29.91,WSW,243,0.0,2.7,100,0.00,,,0.00,VWS V14.01,2013-01-11 01:50:00,
2013-01-10 20:58:00,60.0,60.0,29.91,North,10,0.0,3.1,100,0.00,,,0.00,VWS V14.01,2013-01-11 01:58:00,
2013-01-10 21:03:00,60.0,60.0,29.91,North,0,0.0,2.7,100,0.00,,,0.00,VWS V14.01,2013-01-11 02:03:00,
2013-01-10 21:08:00,60.0,60.0,29.91,North,0,0.0,2.7,100,0.00,,,0.00,VWS V14.01,2013-01-11 02:08:00,
2013-01-10 21:10:00,60.0,60.0,29.91,North,0,0.0,2.7,100,0.00,,,0.00,VWS V14.01,2013-01-11 02:10:00,
2013-01-10 21:18:00,59.8,59.8,29.91,North,0,0.0,0.0,100,0.00,,,0.00,VWS V14.01,2013-01-11 02:18:00,
2013-01-10 21:20:00,59.8,59.8,29.91,North,0,0.0,0.0,100,0.00,,,0.00,VWS V14.01,2013-01-11 02:20:00,
2013-01-10 21:28:00,59.8,59.8,29.91,NW,319,0.0,2.7,100,0.00,,,0.00,VWS V14.01,2013-01-11 02:28:00,
2013-01-10 21:30:00,59.8,59.8,29.91,NW,319,0.0,2.7,100,0.00,,,0.00,VWS V14.01,2013-01-11 02:30:00,
2013-01-10 21:38:00,59.8,59.8,29.91,WNW,300,0.0,3.6,100,0.00,,,0.00,VWS V14.01,2013-01-11 02:38:00,
2013-01-10 21:40:00,59.8,59.8,29.91,West,261,0.0,4.0,100,0.00,,,0.00,VWS V14.01,2013-01-11 02:40:00,
2013-01-10 21:48:00,59.6,59.6,29.91,NW,308,0.0,2.2,100,0.00,,,0.00,VWS V14.01,2013-01-11 02:48:00,
2013-01-10 21:50:00,59.6,59.6,29.91,NW,308,0.0,2.2,100,0.00,,,0.00,VWS V14.01,2013-01-11 02:50:00,
2013-01-10 21:58:00,59.6,59.6,29.91,North,7,0.0,0.0,100,0.00,,,0.00,VWS V14.01,2013-01-11 02:58:00,
2013-01-10 22:00:00,59.6,59.6,29.91,SW,234,2.7,2.7,100,0.00,,,0.00,VWS V14.01,2013-01-11 03:00:00,
2013-01-10 22:03:00,59.6,59.6,29.91,West,265,0.0,3.1,100,0.00,,,0.00,VWS V14.01,2013-01-11 03:03:00,
2013-01-10 22:08:00,59.6,59.6,29.91,West,266,0.0,3.1,100,0.00,,,0.00,VWS V14.01,2013-01-11 03:08:00,
2013-01-10 22:10:00,59.6,59.6,29.91,SSW,198,0.0,3.1,100,0.00,,,0.00,VWS V14.01,2013-01-11 03:10:00,
2013-01-10 22:13:00,59.6,59.6,29.91,WSW,251,2.7,2.7,100,0.00,,,0.00,VWS V14.01,2013-01-11 03:13:00,
2013-01-10 22:18:00,59.6,59.6,29.91,WSW,238,2.7,2.7,100,0.00,,,0.00,VWS V14.01,2013-01-11 03:18:00,
2013-01-10 22:20:00,59.6,59.6,29.91,WSW,238,0.0,2.7,100,0.00,,,0.00,VWS V14.01,2013-01-11 03:20:00,
2013-01-10 22:23:00,59.6,59.6,29.91,ENE,57,0.0,3.1,100,0.00,,,0.00,VWS V14.01,2013-01-11 03:23:00,
2013-01-10 22:28:00,59.6,59.6,29.91,NW,313,3.6,3.6,100,0.00,,,0.00,VWS V14.01,2013-01-11 03:28:00,
2013-01-10 22:30:00,59.6,59.6,29.91,NNE,18,3.6,3.6,100,0.00,,,0.00,VWS V14.01,2013-01-11 03:30:00,
2013-01-10 22:33:00,59.8,59.8,29.91,West,274,4.0,4.0,100,0.00,,,0.00,VWS V14.01,2013-01-11 03:33:00,
2013-01-10 22:38:00,59.8,59.8,29.91,NNE,25,2.7,4.0,100,0.00,,,0.00,VWS V14.01,2013-01-11 03:38:00,
2013-01-10 22:40:00,59.8,59.8,29.91,NNE,25,2.7,4.0,100,0.00,,,0.00,VWS V14.01,2013-01-11 03:40:00,
2013-01-10 22:48:00,60.0,60.0,29.88,SW,226,0.0,5.8,100,0.00,,,0.00,VWS V14.01,2013-01-11 03:48:00,
2013-01-10 22:50:00,60.0,60.0,29.88,NNE,22,2.7,5.8,100,0.00,,,0.00,VWS V14.01,2013-01-11 03:50:00,
2013-01-10 22:53:00,60.0,60.0,29.88,North,10,2.2,2.7,100,0.00,,,0.00,VWS V14.01,2013-01-11 03:53:00,
2013-01-10 22:58:00,60.2,60.2,29.88,South,170,3.1,4.0,100,0.00,,,0.00,VWS V14.01,2013-01-11 03:58:00,
2013-01-10 23:00:00,60.2,60.2,29.88,North,10,3.1,4.0,100,0.00,,,0.00,VWS V14.01,2013-01-11 04:00:00,
2013-01-10 23:08:00,60.2,60.2,29.88,NNW,338,3.1,4.0,100,0.00,,,0.00,VWS V14.01,2013-01-11 04:08:00,
2013-01-10 23:10:00,60.2,60.2,29.88,West,263,2.2,4.0,100,0.00,,,0.00,VWS V14.01,2013-01-11 04:10:00,
2013-01-10 23:13:00,60.2,60.2,29.88,NW,316,5.8,5.8,100,0.00,,,0.00,VWS V14.01,2013-01-11 04:13:00,
2013-01-10 23:18:00,60.3,60.3,29.88,NNE,31,4.0,5.8,100,0.00,,,0.00,VWS V14.01,2013-01-11 04:18:00,
2013-01-10 23:20:00,60.3,60.3,29.88,NNE,30,3.6,5.8,100,0.00,,,0.00,VWS V14.01,2013-01-11 04:20:00,
2013-01-10 23:28:00,60.3,60.3,29.85,NW,313,4.0,4.9,100,0.00,,,0.00,VWS V14.01,2013-01-11 04:28:00,
2013-01-10 23:30:00,60.3,60.3,29.85,NNW,334,4.0,4.9,100,0.00,,,0.00,VWS V14.01,2013-01-11 04:30:00,
2013-01-10 23:33:00,60.3,60.3,29.85,NNE,23,3.6,5.4,100,0.00,,,0.00,VWS V14.01,2013-01-11 04:33:00,
2013-01-10 23:38:00,60.5,60.5,29.85,NNW,344,2.2,5.4,100,0.00,,,0.00,VWS V14.01,2013-01-11 04:38:00,
2013-01-10 23:40:00,60.5,60.5,29.85,NE,46,3.6,5.4,100,0.00,,,0.00,VWS V14.01,2013-01-11 04:40:00,
2013-01-10 23:43:00,60.5,60.5,29.85,NNE,14,2.2,3.6,100,0.00,,,0.00,VWS V14.01,2013-01-11 04:43:00,
2013-01-10 23:48:00,60.5,60.5,29.85,NW,307,0.0,3.6,100,0.00,,,0.00,VWS V14.01,2013-01-11 04:48:00,
2013-01-10 23:50:00,60.5,60.5,29.85,NE,53,0.0,3.6,100,0.00,,,0.00,VWS V14.01,2013-01-11 04:50:00,
2013-01-10 23:53:00,60.5,60.5,29.85,WNW,285,2.7,5.4,100,0.00,,,0.00,VWS V14.01,2013-01-11 04:53:00,
2013-01-10 23:58:00,60.5,60.5,29.85,NNW,346,4.0,5.4,100,0.00,,,0.00,VWS V14.01,2013-01-11 04:58:00,